STARLINK-11532, 62596

Orbit data source: Space-Track

STARLINK-11532, 62596 is a payload satellite owned by SpaceX/Seattle (US) in LEO that was launched on Mon, 13 Jan 2025 UTC via an FALCON 9 launch vehicle from the Air Force Eastern Test Range (AFETR). Payload-class satellites include a variety of spacecraft equipped with specific instruments for various scientific and technological missions. These include communications satellites like Starlink; space stations such as the ISS; scientific satellites like the Hubble; Earth observation satellites from companies like Planet Labs, Umbra, and HawkEye 360; GPS; miniature CubeSats for education and research; and military/defense satellites.

Loading next visibility...
Identifier
62596, 2025-008K
Orbit
LEO
Last TLE update
21 hours ago
Origin
Manufacturer
SpaceX/Seattle
Mission
Operational Commercial Communications
Bus & Motor
STARLINK V2M, Unknown motor
Mass
730 kg wet, ~700 kg dry
Launch date (UTC)
2025-01-13 (4 months ago)
Launch vehicle
FALCON 9
Launch site
Air Force Eastern Test Range (AFETR)
Object type
Payload
Rocket body
Debris
Shape & HBR
Box + 2 Pan, 29 m
Radar Cross Section
36.964 m², Large (>1 m²)

Expand to show TLE details & history

TLE from 21 hours ago
0 STARLINK-11532
1 62596U 25008K   25128.40082694  .00000563  00000-0  78815-5 0  9992
2 62596  43.0022 166.0402 0001344 275.9744  84.0971 15.70827707 19047
Epoch: 2025-05-08T09:37Z
Definitive object data (Epoch: 2025-05-08T09:37:11.447Z)
Latitude
0.00001°
Longitude
155.27066°
Altitude
356.209 km
Speed
7.697 km/s
True Right ascension
11h 04m 09s
True Declination
0° 00' 00"
Sunlit
Object was in full shadow at TLE epoch
Visualization TLE readout
Latitude
-42.51941°
Longitude
72.10465°
Altitude
368.675 km
Speed
7.689 km/s
Apparent Right ascension
04h 10m 05s
Apparent Declination
-42° 56' 17"
Sunlit
Object is in daylight
Visualization observer readout
Local Sidereal Time
14:47:15
Azimuth
252.209° W
Elevation
-74.226°
Doppler factor
1
Orbital elements
Apogee altitude
359.417 km
Perigee altitude
357.606 km
Semi-major axis
6,736.648 km
Eccentricity
0.0001344
Inclination
43.0022°
RAAN
166.0402°
Arg. of periapsis
275.9744°
True anomaly
84.11242°
Mean anomaly
84.0971°
Eccentric anomaly
84.10476°
Mean motion
3.92534 °/min
BSTAR
0.0000078815
Orbital period
91.71 mins
Loading maneuver chart data...
Loading SW <> Apogee altitude chart data...
Loading historical data...
Loading historical data...
Loading historical data...
Loading historical data...
Loading historical data...
Loading historical data...
Loading historical data...

STARLINK-11532 Visibility forecast

Observer location: undefined°, undefined°

Span
Click to sort rows by Start time (UTC) header in descending order
Start Az.
Max El. time (UTC)
Max El. Az.
Max El.
End time (UTC)
End Az.
5 mins2025-05-09 07:15:23.560Z264.341° W2025-05-09 07:18:23.560Z5.048° NNE41.275°2025-05-09 07:20:23.560Z66.099° ENE
4 mins2025-05-09 08:53:23.560Z307.785° NW2025-05-09 08:54:23.560Z350.529° N34.61°2025-05-09 08:57:23.560Z78.842° E
4 mins2025-05-09 10:29:23.560Z280.849° WNW2025-05-09 10:30:23.560Z259.662° W40.576°2025-05-09 10:33:23.560Z117.04° SE
4 mins2025-05-10 06:08:23.560Z241.569° WSW2025-05-10 06:09:23.560Z219.097° SW42.473°2025-05-10 06:12:23.560Z73.746° E
|